Simultaneous Nadir Overpasses (SNOs) Predictions

Prediction of SNOs over PacNW region [( 10.00, 139.50) to ( 22.70, 165.60)] between AQUA and NPP Satellites:

Table of predicted SNOs over PacNW region for the next 30.0 days since TLE Epoch: 1/26/2013
Index Date (AQUA) Time (AQUA) AQUA Lat,Lon Date (NPP) Time (NPP) NPP Lat,Lon Distance(km) Time Diff (sec)
1 01/29/2013 15:59:34 22.58, 147.41 01/29/2013 15:59:53 23.21, 144.61 295.26 19
2 02/06/2013 15:13:12 15.79, 157.91 02/06/2013 15:11:18 16.27, 155.56 256.87 114
3 02/12/2013 02:25:05 16.72, 165.14 02/12/2013 02:26:44 15.97, 161.64 382.76 99
4 02/14/2013 16:06:05 12.39, 144.17 02/14/2013 16:03:14 12.84, 142.02 238.96 171
5 02/20/2013 03:19:34 22.69, 150.56 02/20/2013 03:19:27 22.07, 147.42 329.33 7
